This demonstration page uses our WeatherBlox Daily Observations layout. Learn more.

Left ArrowRight Arrow

38.83388, -104.82136

Hourly Observations for April 16, 2022

Temp ( °F °C ) Dew Point ( °F °C ) Humidity (%) Winds ( mph kmh ) Pressure ( in mb ) Visibility ( mi km ) Precip ( " mm )
12:58 am 00:58 undefined 34 1 13 -10.5 42 42 ESE 15 24 29.74 1007 10 16 0.00 0.00
2:58 am 02:58 undefined 30 -0.9 13 -10.5 49 49 ESE 15 24 29.72 1006 N/A 0.00 0.00
3:58 am 03:58 undefined 30 -1.2 13 -10.8 48 48 ESE 13 20 29.70 1006 N/A 0.00 0.00
4:37 am 04:37 Clear 32 0 14 -10 47 47 E 13 20 29.72 1007 10 16 0.00 0.00
4:58 am 04:58 Mostly Clear 32 0 13 -10.3 46 46 E 9 15 29.72 1006 10 16 0.00 0.00
5:58 am 05:58 undefined N/A N/A N/A undefined N/A N/A 10 16 0.00 0.00
6:58 am 06:58 Sunny 26 -3.2 13 -10.5 57 57 Calm 30.18 1022 10 16 0.00 0.00
7:58 am 07:58 undefined 30 -1.2 14 -10.1 51 51 ESE 12 19 29.80 1009 10 16 0.00 0.00
8:58 am 08:58 undefined 33 0.3 15 -9.4 49 49 E 14 22 29.83 1010 10 16 0.00 0.00
9:58 am 09:58 undefined 38 3.3 16 -8.7 41 41 ENE 18 30 29.82 1010 10 16 0.00 0.00
10:58 am 10:58 Sunny 42 5.3 17 -8.2 37 37 ENE 22 35 29.81 1010 10 16 0.00 0.00
11:58 am 11:58 Sunny 43 6.2 18 -7.8 36 36 E 23 37 29.81 1010 10 16 0.00 0.00
12:58 pm 12:58 Partly Cloudy 44 6.8 18 -7.6 35 35 E 24 39 29.79 1009 10 16 0.00 0.00
2:58 pm 14:58 Mostly Cloudy 46 8 18 -7.7 32 32 E 25 41 29.89 1012 10 16 0.00 0.00
3:58 pm 15:58 Partly Cloudy 47 8.4 19 -7.4 32 32 E 22 35 29.78 1008 10 16 0.00 0.00
4:58 pm 16:58 Partly Cloudy 45 7.4 19 -7.1 35 35 E 24 39 29.73 1007 10 16 0.00 0.00
5:58 pm 17:58 Partly Cloudy 45 7.1 19 -7.3 35 35 E 24 39 29.73 1007 10 16 0.00 0.00
6:58 pm 18:58 Sunny 44 6.7 18 -7.7 35 35 ESE 17 28 29.73 1007 10 16 0.00 0.00
7:58 pm 19:58 Cloudy 42 5.7 18 -7.9 37 37 ESE 17 28 29.73 1007 10 16 0.00 0.00
8:58 pm 20:58 undefined N/A N/A N/A E 15 24 N/A N/A 0.00 0.00
9:58 pm 21:58 undefined 37 2.8 22 -5.6 54 54 ESE 13 20 29.69 1006 10 16 0.00 0.00
10:58 pm 22:58 Clear 35 1.4 21 -6 58 58 E 10 17 29.67 1005 10 16 0.00 0.00
11:58 pm 23:58 undefined 33 0.8 21 -6.1 60 60 Calm 29.64 1004 10 16 0.00 0.00

Powered by AerisWeather